Location: Grossmotten
(48.5500°N, 15.3833°E)
Time: 15:45:23
(UTC+00:00)

CZ-2C R/B - Pass Details

Date: 15 November 2019
Orbit: 667 x 785 km, 98.1° (Epoch: 14 December)

Event Time Altitude Azimuth Distance (km) Brightness Sun altitude
Rises 03:02:32 0° 18° (NNE) 3,198 6.0 -30.2°
Reaches altitude 10° 03:04:56 10° 24° (NNE) 2,251 5.2 -29.8°
Maximum altitude 03:09:44 49° 99° (E) 928 3.2 -29.0°
Enters shadow 03:12:40 21° 165° (SSE) 1,555 4.1 -28.5°
